Weather History for KVYS - November, 2011

Change the Weather History Date:

Wednesday, November 2, 2011

  Actual Average Record
Temperature  
Mean Temperature 60 °F -  
Max Temperature 69 °F 58 °F 75 °F (2008)
Min Temperature 51 °F 39 °F 22 °F (1991)
Degree Days  
Heating Degree Days 5    
Growing Degree Days 10 (Base 50)    
Moisture  
Dew Point 42 °F    
Average Humidity 54    
Maximum Humidity 82    
Minimum Humidity 38    
Precipitation  
Precipitation 0.00 in - - ()
Sea Level Pressure  
Sea Level Pressure 30.01 in    
Wind  
Wind Speed 13 mph (SSW)    
Max Wind Speed 20 mph    
Max Gust Speed 25 mph    
Visibility 10 miles    
Events Thunderstorm    
Averages and records for this station are not official NWS values.
T = Trace of Precipitation, MM = Missing Value Source: NWS Daily Summary

Daily Weather History Graph

Daily Weather History Graph

Search for Another Location

Airport or City:

Trip Planner

Search our weather history database for the weather conditions in past years. The results will help you decide how hot, cold, wet, or windy it might be!

Date:

Astronomy

Nov. 02, 2011 Rise Set
Actual Time 7:28 AM CDT 5:50 PM CDT
Civil Twilight 7:00 AM CDT 6:19 PM CDT
Nautical Twilight 6:27 AM CDT 6:52 PM CDT
Astronomical Twilight 5:55 AM CDT 7:24 PM CDT
Moon 1:48 PM CDT (11/2) No Moon Set
Length of Visible Light 11h 19m
Length of Day
10h 21m
Waxing Crescent, 50% of the Moon is Illuminated
Nov 2
Waxing Crescent
Nov 10
Full
Nov 18
Last Quarter
Nov 25
New
Dec 2
First Quarter

Hourly Weather History & Observations

Time (CDT) Temp. Dew Point Humidity Pressure Visibility Wind Dir Wind Speed Gust Speed Precip Events Conditions
12:15 AM 57.2 °F 39.2 °F 51% 30.04 in 10.0 mi South 17.3 mph 24.2 mph N/A   Clear
12:35 AM 57.2 °F 39.2 °F 51% 30.05 in 10.0 mi South 16.1 mph - N/A   Clear
12:55 AM 57.2 °F 39.2 °F 51% 30.04 in 10.0 mi South 16.1 mph - N/A   Clear
1:15 AM 57.2 °F 39.2 °F 51% 30.05 in 10.0 mi South 16.1 mph - N/A   Clear
1:35 AM 55.4 °F 39.2 °F 54% 30.05 in 10.0 mi South 13.8 mph 19.6 mph N/A   Clear
1:55 AM 55.4 °F 39.2 °F 54% 30.05 in 10.0 mi South 13.8 mph - N/A   Clear
2:15 AM 53.6 °F 39.2 °F 58% 30.05 in 10.0 mi South 11.5 mph - N/A   Clear
2:35 AM 53.6 °F 39.2 °F 58% 30.05 in 10.0 mi South 13.8 mph - N/A   Clear
2:55 AM 53.6 °F 39.2 °F 58% 30.05 in 10.0 mi South 12.7 mph - N/A   Clear
3:15 AM 53.6 °F 39.2 °F 58% 30.04 in 10.0 mi South 13.8 mph - N/A   Clear
3:35 AM 55.4 °F 39.2 °F 54% 30.04 in 10.0 mi South 12.7 mph 18.4 mph N/A   Clear
3:55 AM 55.4 °F 39.2 °F 54% 30.04 in 10.0 mi SSW 17.3 mph - N/A   Clear
4:55 AM 53.6 °F 39.2 °F 58% 30.05 in 10.0 mi South 13.8 mph - N/A   Clear
5:55 AM 51.8 °F 37.4 °F 58% 30.04 in 10.0 mi South 13.8 mph - N/A   Clear
6:15 AM 51.8 °F 37.4 °F 58% 30.04 in 10.0 mi South 13.8 mph - N/A   Clear
6:35 AM 53.6 °F 39.2 °F 58% 30.04 in 10.0 mi South 11.5 mph - N/A   Mostly Cloudy
6:55 AM 53.6 °F 39.2 °F 58% 30.04 in 10.0 mi South 11.5 mph - N/A   Overcast
7:15 AM 53.6 °F 39.2 °F 58% 30.04 in 10.0 mi South 12.7 mph - N/A Thunderstorm Overcast
7:35 AM 53.6 °F 39.2 °F 58% 30.04 in 10.0 mi South 13.8 mph - N/A   Overcast
7:55 AM 53.6 °F 39.2 °F 58% 30.05 in 10.0 mi South 10.4 mph - N/A   Overcast
8:15 AM 55.4 °F 39.2 °F 54% 30.05 in 10.0 mi South 10.4 mph - N/A   Overcast
8:35 AM 55.4 °F 39.2 °F 54% 30.05 in 10.0 mi SSW 12.7 mph - N/A   Mostly Cloudy
8:55 AM 55.4 °F 39.2 °F 54% 30.06 in 10.0 mi South 10.4 mph - N/A   Mostly Cloudy
9:15 AM 57.2 °F 41.0 °F 55% 30.05 in 10.0 mi South 8.1 mph - N/A   Mostly Cloudy
9:35 AM 59.0 °F 41.0 °F 51% 30.05 in 10.0 mi South 8.1 mph - N/A   Scattered Clouds
9:55 AM 59.0 °F 41.0 °F 51% 30.05 in 10.0 mi South 10.4 mph - N/A   Clear
10:15 AM 62.6 °F 41.0 °F 45% 30.04 in 10.0 mi SSW 9.2 mph - N/A   Clear
10:35 AM 62.6 °F 41.0 °F 45% 30.04 in 10.0 mi SW 11.5 mph - N/A   Clear
10:55 AM 64.4 °F 41.0 °F 42% 30.03 in 10.0 mi SW 15.0 mph - N/A   Clear
11:15 AM 66.2 °F 41.0 °F 40% 30.03 in 10.0 mi SW 16.1 mph 21.9 mph N/A   Clear
11:35 AM 64.4 °F 41.0 °F 42% 30.02 in 10.0 mi SW 11.5 mph 17.3 mph N/A   Clear
11:55 AM 64.4 °F 42.8 °F 45% 30.02 in 10.0 mi SSW 13.8 mph - N/A   Mostly Cloudy
12:15 PM 64.4 °F 42.8 °F 45% 30.00 in 10.0 mi SSW 10.4 mph - N/A   Mostly Cloudy
12:35 PM 66.2 °F 42.8 °F 43% 30.00 in 10.0 mi SSW 11.5 mph - N/A   Scattered Clouds
12:55 PM 66.2 °F 42.8 °F 43% 29.99 in 10.0 mi SSW 10.4 mph - N/A   Scattered Clouds
1:15 PM 66.2 °F 41.0 °F 40% 29.97 in 10.0 mi SSW 13.8 mph - N/A   Scattered Clouds
1:35 PM 68.0 °F 42.8 °F 40% 29.97 in 10.0 mi SSW 5.8 mph - N/A   Scattered Clouds
1:55 PM 68.0 °F 42.8 °F 40% 29.96 in 10.0 mi SW 8.1 mph - N/A   Clear
2:15 PM 68.0 °F 42.8 °F 40% 29.95 in 10.0 mi SSW 12.7 mph - N/A   Scattered Clouds
2:35 PM 68.0 °F 42.8 °F 40% 29.96 in 10.0 mi SW 9.2 mph - N/A   Scattered Clouds
2:55 PM 68.0 °F 42.8 °F 40% 29.96 in 10.0 mi South 10.4 mph - N/A   Scattered Clouds
3:15 PM 68.0 °F 42.8 °F 40% 29.96 in 10.0 mi SSW 11.5 mph - N/A   Scattered Clouds
3:35 PM 69.8 °F 42.8 °F 38% 29.95 in 10.0 mi South 5.8 mph - N/A   Clear
3:55 PM 69.8 °F 42.8 °F 38% 29.94 in 10.0 mi SSW 8.1 mph - N/A   Clear
4:15 PM 69.8 °F 42.8 °F 38% 29.93 in 10.0 mi SSW 6.9 mph - N/A   Clear
4:35 PM 69.8 °F 44.6 °F 40% 29.93 in 10.0 mi SW 5.8 mph - N/A   Clear
4:55 PM 68.0 °F 44.6 °F 43% 29.93 in 10.0 mi SW 8.1 mph - N/A   Clear
5:15 PM 66.2 °F 46.4 °F 49% 29.94 in 10.0 mi West 6.9 mph - N/A   Scattered Clouds
5:35 PM 64.4 °F 46.4 °F 52% 29.94 in 10.0 mi West 4.6 mph - N/A   Mostly Cloudy
5:55 PM 64.4 °F 44.6 °F 49% 29.95 in 10.0 mi NW 13.8 mph - N/A   Overcast
6:15 PM 60.8 °F 46.4 °F 59% 29.97 in 10.0 mi NNW 19.6 mph - N/A   Mostly Cloudy
6:35 PM 55.4 °F 48.2 °F 77% 29.98 in 10.0 mi North 17.3 mph 25.3 mph N/A   Mostly Cloudy
6:55 PM 53.6 °F 48.2 °F 82% 29.98 in 7.0 mi North 19.6 mph 23.0 mph N/A   Overcast
7:15 PM 53.6 °F 46.4 °F 77% 29.99 in 7.0 mi North 16.1 mph 21.9 mph N/A   Overcast
7:35 PM 53.6 °F 46.4 °F 77% 30.00 in 10.0 mi North 11.5 mph 21.9 mph N/A   Mostly Cloudy
7:55 PM 53.6 °F 46.4 °F 77% 30.00 in 10.0 mi North 13.8 mph 19.6 mph N/A   Overcast
8:15 PM 51.8 °F 46.4 °F 82% 29.99 in 10.0 mi NNE 17.3 mph 21.9 mph N/A   Overcast
8:35 PM 51.8 °F 46.4 °F 82% 30.00 in 10.0 mi NNE 10.4 mph - N/A   Mostly Cloudy
8:55 PM 51.8 °F 46.4 °F 82% 29.99 in 10.0 mi NNE 15.0 mph - N/A   Overcast
9:15 PM 51.8 °F 46.4 °F 82% 29.98 in 10.0 mi NE 15.0 mph - N/A   Overcast
9:35 PM 51.8 °F 46.4 °F 82% 29.99 in 10.0 mi NNE 15.0 mph - N/A   Overcast
9:55 PM 51.8 °F 46.4 °F 82% 29.98 in 10.0 mi NE 15.0 mph - N/A   Overcast
10:15 PM 51.8 °F 46.4 °F 82% 29.98 in 10.0 mi NNE 13.8 mph 18.4 mph N/A   Overcast
10:35 PM 51.8 °F 48.2 °F 88% 29.97 in 10.0 mi NNE 15.0 mph - N/A   Overcast
10:55 PM 51.8 °F 48.2 °F 88% 29.98 in 10.0 mi NNE 15.0 mph 19.6 mph N/A   Overcast
11:15 PM 51.8 °F 48.2 °F 88% 29.98 in 10.0 mi NNE 13.8 mph - N/A   Overcast
11:35 PM 51.8 °F 46.4 °F 82% 29.99 in 10.0 mi NNE 18.4 mph 25.3 mph N/A   Overcast
11:55 PM 51.8 °F 46.4 °F 82% 30.00 in 10.0 mi NNE 19.6 mph - N/A   Overcast